EN

Hourly Weather Parma Heights

Today, 3 March, Wednesday

Time Temperature Precipitation Wind Pressure Humidity
00:00 -4°C° 0 mm 5 mps 738 mmHg 51%
01:00 -4°C° 0 mm 5 mps 738 mmHg 51%
02:00 -4°C° 0 mm 5 mps 737 mmHg 51%
03:00 -4°C° 0 mm 5 mps 737 mmHg 51%
04:00 -4°C° 0 mm 5 mps 736 mmHg 52%
05:00 -4°C° 0 mm 5 mps 736 mmHg 55%
06:00 -4°C° 0 mm 5 mps 736 mmHg 59%
07:00 -4°C° 0 mm 5 mps 736 mmHg 62%
08:00 -1°C° 0 mm 5 mps 736 mmHg 61%
09:00 +1°C° 0 mm 5 mps 736 mmHg 60%
10:00 +3°C° 0 mm 5 mps 736 mmHg 59%
11:00 +5°C° 0 mm 5 mps 736 mmHg 58%
12:00 +6°C° 0 mm 5 mps 735 mmHg 58%
13:00 +8°C° 0 mm 5 mps 735 mmHg 57%
14:00 +8°C° 0 mm 5 mps 735 mmHg 60%
15:00 +7°C° 0 mm 5 mps 735 mmHg 62%
16:00 +7°C° 0 mm 5 mps 734 mmHg 65%
17:00 +6°C° 0 mm 4 mps 735 mmHg 71%
18:00 +4°C° 0 mm 4 mps 735 mmHg 76%
19:00 +3°C° 0 mm 4 mps 736 mmHg 82%
20:00 +1°C° 0 mm 4 mps 736 mmHg 81%
21:00 +1°C° 0 mm 4 mps 737 mmHg 81%
22:00 0°C° 0 mm 4 mps 737 mmHg 81%
23:00 0°C° 0 mm 4 mps 738 mmHg 85%

Tomorrow, 4 March, Thursday

Time Temperature Precipitation Wind Pressure Humidity
00:00 -1°C° 0 mm 4 mps 738 mmHg 89%
01:00 -1°C° 0 mm 5 mps 738 mmHg 92%
02:00 -2°C° 0 mm 5 mps 739 mmHg 90%
03:00 -2°C° 0 mm 4 mps 739 mmHg 87%
04:00 -3°C° 0 mm 4 mps 739 mmHg 85%
05:00 -3°C° 0 mm 4 mps 740 mmHg 85%
06:00 -3°C° 0 mm 4 mps 740 mmHg 86%
07:00 -4°C° 0 mm 4 mps 741 mmHg 86%
08:00 -4°C° 0 mm 4 mps 741 mmHg 84%
09:00 -4°C° 0 mm 5 mps 741 mmHg 81%
10:00 -4°C° 0 mm 5 mps 742 mmHg 78%
11:00 -2°C° 0 mm 5 mps 742 mmHg 75%
12:00 -2°C° 0 mm 5 mps 742 mmHg 71%
13:00 -2°C° 0 mm 5 mps 742 mmHg 68%
14:00 -2°C° 0 mm 5 mps 741 mmHg 67%
15:00 -2°C° 0 mm 5 mps 741 mmHg 66%
16:00 -2°C° 0 mm 5 mps 741 mmHg 65%
17:00 -4°C° 0 mm 5 mps 741 mmHg 68%
18:00 -5°C° 0 mm 5 mps 742 mmHg 72%
19:00 -6°C° 0 mm 5 mps 742 mmHg 75%
20:00 -6°C° 0 mm 5 mps 742 mmHg 74%
21:00 -7°C° 0 mm 5 mps 742 mmHg 72%
22:00 -8°C° 0 mm 5 mps 743 mmHg 70%
23:00 -8°C° 0 mm 5 mps 743 mmHg 70%

Day after tomorrow, 5 March, Friday

Time Temperature Precipitation Wind Pressure Humidity
00:00 -8°C° 0 mm 4 mps 743 mmHg 70%
01:00 -8°C° 0 mm 4 mps 743 mmHg 69%
02:00 -8°C° 0 mm 4 mps 743 mmHg 69%
03:00 -8°C° 0 mm 4 mps 743 mmHg 69%
04:00 -8°C° 0 mm 4 mps 743 mmHg 69%
05:00 -8°C° 0 mm 4 mps 743 mmHg 70%
06:00 -8°C° 0 mm 4 mps 743 mmHg 71%
07:00 -8°C° 0 mm 4 mps 744 mmHg 72%
08:00 -7°C° 0 mm 4 mps 744 mmHg 66%
09:00 -5°C° 0 mm 4 mps 744 mmHg 60%
10:00 -4°C° 0 mm 4 mps 744 mmHg 53%
11:00 -4°C° 0 mm 4 mps 744 mmHg 48%
12:00 -3°C° 0 mm 4 mps 743 mmHg 43%
13:00 -2°C° 0 mm 4 mps 743 mmHg 38%
14:00 -2°C° 0 mm 4 mps 743 mmHg 39%
15:00 -2°C° 0 mm 4 mps 742 mmHg 39%
16:00 -1°C° 0 mm 4 mps 742 mmHg 40%
17:00 -2°C° 0 mm 4 mps 742 mmHg 45%
18:00 -2°C° 0 mm 3 mps 742 mmHg 51%
19:00 -3°C° 0 mm 2 mps 742 mmHg 56%
20:00 -3°C° 0 mm 2 mps 742 mmHg 62%
21:00 -4°C° 0 mm 3 mps 742 mmHg 68%
22:00 -4°C° 0 mm 3 mps 742 mmHg 74%
23:00 -4°C° 0 mm 3 mps 742 mmHg 77%

6 March, Saturday

Time Temperature Precipitation Wind Pressure Humidity
00:00 -4°C° 0 mm 3 mps 742 mmHg 80%
01:00 -4°C° 0 mm 4 mps 742 mmHg 83%
02:00 -5°C° 0 mm 3 mps 742 mmHg 85%
03:00 -5°C° 0 mm 3 mps 742 mmHg 86%
04:00 -5°C° 0 mm 3 mps 741 mmHg 87%
05:00 -5°C° 0 mm 3 mps 742 mmHg 88%
06:00 -4°C° 0 mm 2 mps 742 mmHg 88%
07:00 -5°C° 0 mm 2 mps 742 mmHg 89%
08:00 -4°C° 0 mm 2 mps 742 mmHg 81%
09:00 -2°C° 0 mm 3 mps 742 mmHg 72%
10:00 -1°C° 0 mm 3 mps 743 mmHg 64%
11:00 0°C° 0 mm 3 mps 742 mmHg 60%
12:00 0°C° 0 mm 3 mps 742 mmHg 57%
13:00 +1°C° 0 mm 3 mps 742 mmHg 53%
14:00 +1°C° 0 mm 3 mps 742 mmHg 55%
15:00 +1°C° 0 mm 3 mps 741 mmHg 57%
16:00 +1°C° 0 mm 2 mps 741 mmHg 59%
17:00 -1°C° 0.1 mm 2 mps 741 mmHg 69%
18:00 0°C° 0.1 mm 1 mps 741 mmHg 78%
19:00 -1°C° 0.1 mm 1 mps 741 mmHg 88%
20:00 -1°C° 0.1 mm 1 mps 742 mmHg 87%
21:00 -2°C° 0.1 mm 1 mps 742 mmHg 85%
22:00 -4°C° 0.1 mm 2 mps 742 mmHg 83%
23:00 -5°C° 0 mm 2 mps 742 mmHg 84%

7 March, Sunday

Time Temperature Precipitation Wind Pressure Humidity
00:00 -3°C° 0 mm 1 mps 742 mmHg 86%
01:00 -4°C° 0 mm 1 mps 743 mmHg 87%
02:00 -4°C° 0 mm 1 mps 743 mmHg 86%
03:00 -4°C° 0 mm 1 mps 743 mmHg 85%
04:00 -4°C° 0 mm 1 mps 744 mmHg 84%
05:00 -4°C° 0 mm 1 mps 744 mmHg 83%
06:00 -4°C° 0 mm 1 mps 745 mmHg 82%
07:00 -4°C° 0 mm 1 mps 745 mmHg 81%
08:00 -3°C° 0 mm 1 mps 745 mmHg 73%
09:00 -3°C° 0 mm 2 mps 746 mmHg 65%
10:00 -2°C° 0 mm 2 mps 746 mmHg 57%
11:00 -2°C° 0 mm 2 mps 746 mmHg 54%
12:00 -1°C° 0 mm 2 mps 746 mmHg 51%
13:00 0°C° 0 mm 3 mps 746 mmHg 48%
14:00 +1°C° 0 mm 2 mps 746 mmHg 48%
15:00 +1°C° 0 mm 2 mps 746 mmHg 49%
16:00 -1°C° 0 mm 2 mps 746 mmHg 49%
17:00 -2°C° 0 mm 2 mps 746 mmHg 53%
18:00 -1°C° 0 mm 1 mps 746 mmHg 56%
19:00 -2°C° 0 mm 1 mps 747 mmHg 60%
20:00 -3°C° 0 mm 1 mps 747 mmHg 60%
21:00 -3°C° 0 mm 1 mps 747 mmHg 60%
22:00 -3°C° 0 mm 1 mps 747 mmHg 61%
23:00 -3°C° 0 mm 1 mps 748 mmHg 61%

8 March, Monday

Time Temperature Precipitation Wind Pressure Humidity
00:00 -3°C° 0 mm 1 mps 748 mmHg 61%
01:00 -3°C° 0 mm 1 mps 748 mmHg 61%
02:00 -3°C° 0 mm 1 mps 748 mmHg 62%
03:00 -3°C° 0 mm 1 mps 748 mmHg 63%
04:00 -5°C° 0 mm 2 mps 748 mmHg 64%
05:00 -5°C° 0 mm 2 mps 748 mmHg 65%
06:00 -5°C° 0 mm 2 mps 748 mmHg 67%
07:00 -5°C° 0 mm 2 mps 748 mmHg 68%
08:00 -4°C° 0 mm 3 mps 748 mmHg 64%
09:00 -1°C° 0 mm 3 mps 748 mmHg 59%
10:00 +1°C° 0 mm 3 mps 748 mmHg 54%
11:00 +3°C° 0 mm 3 mps 748 mmHg 49%
12:00 +5°C° 0 mm 2 mps 748 mmHg 44%
13:00 +7°C° 0 mm 2 mps 748 mmHg 39%
14:00 +8°C° 0 mm 2 mps 747 mmHg 42%
15:00 +9°C° 0 mm 2 mps 747 mmHg 44%
16:00 +9°C° 0 mm 2 mps 747 mmHg 47%
17:00 +7°C° 0 mm 3 mps 747 mmHg 55%
18:00 +5°C° 0 mm 3 mps 747 mmHg 63%
19:00 +3°C° 0 mm 3 mps 747 mmHg 70%
20:00 +1°C° 0 mm 4 mps 747 mmHg 72%
21:00 +1°C° 0 mm 4 mps 747 mmHg 74%
22:00 0°C° 0 mm 4 mps 747 mmHg 76%
23:00 0°C° 0 mm 4 mps 747 mmHg 76%
Show more

We Need Your Consent

Meteoprog and our Service Providers may store and access personal data such as cookies, device identifiers or other similar technologies on your device and process such data to personalise content and ads, as well as provide social media features and to analyse the traffic.

  • Store and/or access information on your device

    Cookies, device identifiers or other information can be stored or accessed on your device for the purposes indicated above.

  • Personalised ads and content, ad and content measurement, audience insights, and products development

    Ads and content can be personalised based on a profile. More data can be added to better personalise ads and content. Ad and content performance can be measured. Insights about the audience who saw the ads and content can be derived. Such data can be used to develop or improve user’s experience, systems and software.

By clicking ‘I Agree’ you will allow the use of indicated cookies, device identifiers, web beacons or other similar technologies. Your settings can be changed in the browser on your device.

For certain purposes, legitimate interests may be relied on, rather than consent. You can read more about this in our Privacy and Cookie Policy.